When you browse on this site, cookies collect data to enhance your experience and personalize the content and advertising you see.
Visit our Privacy Policy to learn more. By continuing to use the site, you agree to this use of cookies and data.
  • In Österreich
  • Länderverzeichnis
  • Für 7 Tage
  • Wassertemperatur
  • Wetterkarte
  • News
  • Widgets
  • user-avatar
    Anmelden

    Stündliche Wetter Opole

    Heute, 25 Mai, Montag

    Zeit Temperatur Niederschläge Wind Luftdruck Luftfeuchtigkeit
    00:00 +8°C° 0 mm 3 m/S 753 mmHg 92%
    01:00 +8°C° 0 mm 2 m/S 753 mmHg 92%
    02:00 +8°C° 0.1 mm 3 m/S 753 mmHg 92%
    03:00 +9°C° 0.1 mm 3 m/S 752 mmHg 91%
    04:00 +9°C° 0.1 mm 3 m/S 752 mmHg 91%
    05:00 +8°C° 0.3 mm 4 m/S 752 mmHg 91%
    06:00 +9°C° 0.3 mm 5 m/S 752 mmHg 90%
    07:00 +9°C° 0.3 mm 5 m/S 752 mmHg 89%
    08:00 +9°C° 0.3 mm 5 m/S 752 mmHg 87%
    09:00 +10°C° 0.3 mm 5 m/S 753 mmHg 86%
    10:00 +10°C° 0.3 mm 5 m/S 753 mmHg 84%
    11:00 +12°C° 0.5 mm 5 m/S 752 mmHg 82%
    12:00 +12°C° 0.5 mm 5 m/S 752 mmHg 80%
    13:00 +13°C° 0.5 mm 5 m/S 752 mmHg 77%
    14:00 +13°C° 0.5 mm 5 m/S 752 mmHg 77%
    15:00 +14°C° 0.5 mm 5 m/S 752 mmHg 77%
    16:00 +14°C° 0.5 mm 5 m/S 752 mmHg 76%
    17:00 +13°C° 0.4 mm 4 m/S 752 mmHg 81%
    18:00 +12°C° 0.4 mm 4 m/S 753 mmHg 85%
    19:00 +11°C° 0.4 mm 3 m/S 753 mmHg 89%
    20:00 +11°C° 0.2 mm 3 m/S 753 mmHg 92%
    21:00 +10°C° 0.2 mm 3 m/S 754 mmHg 94%
    22:00 +9°C° 0.2 mm 3 m/S 754 mmHg 96%
    23:00 +9°C° 0.2 mm 3 m/S 755 mmHg 97%

    Morgen, 26 Mai, Dienstag

    Zeit Temperatur Niederschläge Wind Luftdruck Luftfeuchtigkeit
    00:00 +9°C° 0.2 mm 3 m/S 755 mmHg 97%
    01:00 +9°C° 0.2 mm 3 m/S 755 mmHg 98%
    02:00 +9°C° 0 mm 3 m/S 755 mmHg 98%
    03:00 +8°C° 0 mm 3 m/S 755 mmHg 98%
    04:00 +8°C° 0 mm 3 m/S 755 mmHg 98%
    05:00 +8°C° 0 mm 4 m/S 756 mmHg 95%
    06:00 +8°C° 0 mm 4 m/S 756 mmHg 93%
    07:00 +10°C° 0 mm 4 m/S 757 mmHg 91%
    08:00 +11°C° 0 mm 4 m/S 757 mmHg 84%
    09:00 +13°C° 0 mm 4 m/S 757 mmHg 77%
    10:00 +14°C° 0 mm 4 m/S 757 mmHg 70%
    11:00 +15°C° 0.6 mm 5 m/S 757 mmHg 69%
    12:00 +16°C° 0.6 mm 5 m/S 756 mmHg 69%
    13:00 +16°C° 0.6 mm 5 m/S 756 mmHg 69%
    14:00 +16°C° 0.7 mm 5 m/S 756 mmHg 70%
    15:00 +16°C° 0.7 mm 5 m/S 756 mmHg 72%
    16:00 +16°C° 0.7 mm 5 m/S 756 mmHg 73%
    17:00 +15°C° 0.2 mm 5 m/S 756 mmHg 77%
    18:00 +14°C° 0.2 mm 4 m/S 756 mmHg 82%
    19:00 +14°C° 0.2 mm 3 m/S 756 mmHg 86%
    20:00 +13°C° 0.1 mm 3 m/S 756 mmHg 88%
    21:00 +11°C° 0.1 mm 3 m/S 757 mmHg 91%
    22:00 +10°C° 0.1 mm 3 m/S 757 mmHg 93%
    23:00 +10°C° 0 mm 3 m/S 757 mmHg 94%

    übermorgen, 27 Mai, Mittwoch

    Zeit Temperatur Niederschläge Wind Luftdruck Luftfeuchtigkeit
    00:00 +9°C° 0 mm 3 m/S 757 mmHg 94%
    01:00 +9°C° 0 mm 2 m/S 757 mmHg 95%
    02:00 +8°C° 0 mm 2 m/S 757 mmHg 95%
    03:00 +8°C° 0 mm 2 m/S 757 mmHg 96%
    04:00 +7°C° 0 mm 2 m/S 757 mmHg 96%
    05:00 +9°C° 0 mm 3 m/S 757 mmHg 93%
    06:00 +10°C° 0 mm 3 m/S 757 mmHg 90%
    07:00 +12°C° 0 mm 3 m/S 757 mmHg 87%
    08:00 +13°C° 0 mm 4 m/S 757 mmHg 78%
    09:00 +15°C° 0 mm 4 m/S 757 mmHg 70%
    10:00 +18°C° 0 mm 4 m/S 756 mmHg 62%
    11:00 +18°C° 0 mm 4 m/S 756 mmHg 59%
    12:00 +19°C° 0 mm 4 m/S 756 mmHg 57%
    13:00 +20°C° 0 mm 4 m/S 755 mmHg 54%
    14:00 +20°C° 0 mm 4 m/S 755 mmHg 55%
    15:00 +20°C° 0 mm 4 m/S 755 mmHg 55%
    16:00 +19°C° 0 mm 4 m/S 754 mmHg 56%
    17:00 +18°C° 0 mm 4 m/S 754 mmHg 62%
    18:00 +17°C° 0 mm 3 m/S 754 mmHg 67%
    19:00 +15°C° 0 mm 2 m/S 754 mmHg 73%
    20:00 +15°C° 0 mm 2 m/S 754 mmHg 73%
    21:00 +14°C° 0 mm 1 m/S 754 mmHg 73%
    22:00 +13°C° 0 mm 1 m/S 754 mmHg 73%
    23:00 +13°C° 0 mm 1 m/S 754 mmHg 74%

    28 Mai, Donnerstag

    Zeit Temperatur Niederschläge Wind Luftdruck Luftfeuchtigkeit
    00:00 +12°C° 0 mm 2 m/S 753 mmHg 76%
    01:00 +12°C° 0 mm 2 m/S 753 mmHg 78%
    02:00 +12°C° 0.7 mm 2 m/S 753 mmHg 84%
    03:00 +11°C° 0.7 mm 3 m/S 753 mmHg 89%
    04:00 +11°C° 0.7 mm 4 m/S 753 mmHg 95%
    05:00 +11°C° 0.3 mm 4 m/S 753 mmHg 91%
    06:00 +11°C° 0.3 mm 4 m/S 753 mmHg 88%
    07:00 +10°C° 0.3 mm 5 m/S 753 mmHg 84%
    08:00 +10°C° 0 mm 5 m/S 753 mmHg 78%
    09:00 +12°C° 0 mm 5 m/S 753 mmHg 72%
    10:00 +13°C° 0 mm 5 m/S 753 mmHg 66%
    11:00 +14°C° 0 mm 6 m/S 752 mmHg 63%
    12:00 +15°C° 0 mm 6 m/S 752 mmHg 59%
    13:00 +15°C° 0 mm 6 m/S 751 mmHg 56%
    14:00 +15°C° 0.1 mm 6 m/S 751 mmHg 58%
    15:00 +15°C° 0.1 mm 5 m/S 751 mmHg 59%
    16:00 +15°C° 0.1 mm 5 m/S 750 mmHg 60%
    17:00 +14°C° 0.2 mm 5 m/S 750 mmHg 68%
    18:00 +13°C° 0.2 mm 4 m/S 751 mmHg 75%
    19:00 +12°C° 0.2 mm 3 m/S 751 mmHg 83%
    20:00 +11°C° 0 mm 3 m/S 751 mmHg 87%
    21:00 +10°C° 0 mm 3 m/S 751 mmHg 91%
    22:00 +9°C° 0 mm 3 m/S 751 mmHg 95%
    23:00 +8°C° 0 mm 2 m/S 751 mmHg 95%

    29 Mai, Freitag

    Zeit Temperatur Niederschläge Wind Luftdruck Luftfeuchtigkeit
    00:00 +7°C° 0 mm 2 m/S 751 mmHg 95%
    01:00 +7°C° 0 mm 2 m/S 751 mmHg 95%
    02:00 +6°C° 0 mm 2 m/S 751 mmHg 95%
    03:00 +6°C° 0 mm 2 m/S 750 mmHg 94%
    04:00 +7°C° 0 mm 1 m/S 750 mmHg 94%
    05:00 +8°C° 0 mm 1 m/S 750 mmHg 89%
    06:00 +9°C° 0 mm 1 m/S 750 mmHg 84%
    07:00 +11°C° 0 mm 1 m/S 750 mmHg 79%
    08:00 +11°C° 0.2 mm 1 m/S 749 mmHg 76%
    09:00 +12°C° 0.2 mm 1 m/S 749 mmHg 73%
    10:00 +13°C° 0.2 mm 1 m/S 749 mmHg 71%
    11:00 +13°C° 0.7 mm 1 m/S 748 mmHg 72%
    12:00 +13°C° 0.7 mm 1 m/S 748 mmHg 74%
    13:00 +13°C° 0.7 mm 2 m/S 748 mmHg 75%
    14:00 +13°C° 0.6 mm 2 m/S 747 mmHg 77%
    15:00 +13°C° 0.6 mm 2 m/S 747 mmHg 79%
    16:00 +13°C° 0.6 mm 2 m/S 747 mmHg 80%
    17:00 +12°C° 0.2 mm 2 m/S 747 mmHg 83%
    18:00 +10°C° 0.2 mm 2 m/S 747 mmHg 86%
    19:00 +10°C° 0.2 mm 2 m/S 747 mmHg 89%
    20:00 +9°C° 0 mm 2 m/S 747 mmHg 91%
    21:00 +8°C° 0 mm 2 m/S 748 mmHg 93%
    22:00 +7°C° 0 mm 2 m/S 748 mmHg 95%
    23:00 +7°C° 0 mm 2 m/S 748 mmHg 95%

    30 Mai, Samstag

    Zeit Temperatur Niederschläge Wind Luftdruck Luftfeuchtigkeit
    00:00 +7°C° 0 mm 2 m/S 748 mmHg 95%
    01:00 +6°C° 0 mm 2 m/S 747 mmHg 96%
    02:00 +6°C° 0 mm 2 m/S 747 mmHg 96%
    03:00 +6°C° 0 mm 2 m/S 747 mmHg 96%
    04:00 +6°C° 0 mm 2 m/S 747 mmHg 96%
    05:00 +7°C° 0.1 mm 3 m/S 747 mmHg 95%
    06:00 +8°C° 0.1 mm 3 m/S 747 mmHg 95%
    07:00 +9°C° 0.1 mm 3 m/S 747 mmHg 94%
    08:00 +8°C° 0.6 mm 4 m/S 747 mmHg 92%
    09:00 +8°C° 0.7 mm 4 m/S 747 mmHg 91%
    10:00 +10°C° 0.7 mm 4 m/S 747 mmHg 90%
    11:00 +10°C° 0.7 mm 4 m/S 747 mmHg 91%
    12:00 +9°C° 0.7 mm 5 m/S 747 mmHg 92%
    13:00 +9°C° 0.7 mm 5 m/S 747 mmHg 93%
    14:00 +10°C° 0.2 mm 4 m/S 747 mmHg 92%
    15:00 +10°C° 0.2 mm 4 m/S 746 mmHg 92%
    16:00 +11°C° 0.2 mm 4 m/S 746 mmHg 92%
    17:00 +11°C° 0 mm 3 m/S 746 mmHg 92%
    18:00 +11°C° 0 mm 3 m/S 746 mmHg 92%
    19:00 +12°C° 0 mm 2 m/S 746 mmHg 92%
    20:00 +12°C° 0 mm 2 m/S 747 mmHg 92%
    21:00 +10°C° 0 mm 2 m/S 747 mmHg 93%
    22:00 +10°C° 0 mm 2 m/S 747 mmHg 93%
    23:00 +9°C° 0 mm 2 m/S 747 mmHg 94%
    Mehr zeigen